"TOA5","AWS1","CR1000","7964","CR1000.Std.14","CPU:AWS1_114.CR1","64363","TBL110"
"TIMESTAMP","RECORD","Wind_spd_WVc(1)","Wind_spd_WVc(2)","Air_Temp_Avg","Humidity_Avg","SW_upper_Wm2_Avg","Rain_Tot","Press_Avg","Issui_Tot","Depth_cm","SR50A_Raw","Quality","Ground_Temp_Avg(1)","Ground_Temp_Avg(2)","SW_lower_Wm2_Avg","Albedo_Avg","SWC_per(1)","SWC_per(2)","Period(1)","Period(2)"
"TS","RN","","","","","","","","","","","","","","","","","","",""
"","","WVc","WVc","Avg","Avg","Avg","Tot","Avg","Tot","Smp","Smp","Smp","Avg","Avg","Avg","Avg","Smp","Smp","Smp","Smp"
"2018-05-14 00:00:00",340477,0.425,124.7,10.96,100,0,0,859.0744,0,-1.783,3.135,190,10.9,10.32,0.3941226,0,54.07,61.46,34.29,36.01
"2018-05-14 00:10:00",340478,0.302,131.5,11.17,100,0,0,859.0302,0,-1.654,3.133,192,10.9,10.33,0.4168655,0,54.07,61.4,34.29,36
"2018-05-14 00:20:00",340479,0.507,120.9,11.2,100,0,0.5,858.9102,0,-1.481,3.131,197,10.91,10.34,0.394145,0,54.12,61.4,34.3,36
"2018-05-14 00:30:00",340480,0.283,127.9,11.28,100,0,0,858.9228,0,-2.065,3.136,181,10.93,10.34,0.3865705,0,54.12,61.34,34.3,35.98
"2018-05-14 00:40:00",340481,0.279,63.74,11.37,100,0,0,859.0408,0,-1.372,3.129,192,10.96,10.35,0.2615057,0,54.12,61.28,34.3,35.97
"2018-05-14 00:50:00",340482,0.221,38.24,11.41,100,0,0,858.8343,0,-0.804,3.123,199,10.95,10.33,0.1781183,0,54.07,61.28,34.29,35.97
"2018-05-14 01:00:00",340483,0.148,48.98,11.4,100,0,0,858.8322,0,-1.573,3.131,197,10.92,10.34,0.03410776,0,54.07,61.22,34.29,35.96
"2018-05-14 01:10:00",340484,0.226,33.38,11.32,100,0,0.5,859.0049,0,-2.745,3.143,175,10.88,10.34,0,0,54.07,61.22,34.29,35.96
"2018-05-14 01:20:00",340485,0.48,128.6,11.24,100,0,0,858.9607,0,-3.025,3.146,173,10.86,10.33,0,0,54.07,61.16,34.29,35.94
"2018-05-14 01:30:00",340486,0.513,137.4,11.25,100,0,0,858.8849,0,-2.697,3.143,193,10.85,10.33,0,0,54.07,61.16,34.29,35.94
"2018-05-14 01:40:00",340487,0.755,95.6,11.23,100,0,0,858.8301,0,-1.98,3.136,174,10.84,10.33,0,0,54.07,61.16,34.29,35.94
"2018-05-14 01:50:00",340488,0.668,96.7,11.29,100,0,0,858.8154,0,-2.107,3.137,188,10.81,10.33,0.007579234,0,54.01,61.1,34.27,35.93
"2018-05-14 02:00:00",340489,0.767,112.1,11.29,100,0,0,858.8133,0,-2.207,3.138,192,10.81,10.33,0,0,54.01,61.1,34.27,35.93
"2018-05-14 02:10:00",340490,0.636,120,11.27,100,0,0,858.8174,0,-2.794,3.144,194,10.81,10.33,0,0,54.01,61.1,34.27,35.93
"2018-05-14 02:20:00",340491,0.444,91.1,11.24,100,0,0,858.809,0,-2.997,3.146,172,10.81,10.33,0,0,54.01,61.1,34.27,35.93
"2018-05-14 02:30:00",340492,0.402,28.25,11.23,100,0,0,858.6995,0,-2.997,3.146,172,10.81,10.33,0,0,54.01,61.1,34.27,35.93
"2018-05-14 02:40:00",340493,0.28,42.35,11.23,100,0,0,858.5816,0,-3.047,3.146,171,10.81,10.33,0,0,54.01,61.04,34.27,35.92
"2018-05-14 02:50:00",340494,0.407,29.98,11.23,100,0,0,858.7122,0,-2.999,3.146,190,10.81,10.33,0,0,54.01,61.04,34.27,35.92
"2018-05-14 03:00:00",340495,0.338,53.46,11.24,100,0,0,858.5837,0,-2.998,3.146,181,10.82,10.33,0,0,53.95,61.04,34.26,35.92
"2018-05-14 03:10:00",340496,0.226,66,11.22,100,0,0,858.5605,0,-2.997,3.146,173,10.83,10.33,0,0,53.95,60.98,34.26,35.9
"2018-05-14 03:20:00",340497,0.229,0.633,11.16,100,0,0,858.7311,0,-3.099,3.147,185,10.85,10.33,0,0,53.95,60.98,34.26,35.9
"2018-05-14 03:30:00",340498,0.382,246,11.02,100,0,1,858.8365,0,-0.432,3.123,225,10.85,10.33,0,0,53.95,60.98,34.26,35.9
"2018-05-14 03:40:00",340499,0.063,262,10.85,100,0,0,859.0555,0,-0.864,3.127,214,10.83,10.33,0,0,53.95,60.92,34.26,35.89
"2018-05-14 03:50:00",340500,0.038,288.5,10.87,100,0,0,859.0576,0,-1.068,3.129,207,10.81,10.33,0,0,53.9,60.92,34.25,35.89
"2018-05-14 04:00:00",340501,0.278,348,10.86,100,0,0,859.066,0,0.124,3.118,243,10.78,10.33,0,0,53.95,60.92,34.26,35.89
"2018-05-14 04:10:00",340502,0.631,346.9,10.72,100,0,0,859.066,0,-2.737,3.147,193,10.77,10.34,0.034107,0,53.9,60.92,34.25,35.89
"2018-05-14 04:20:00",340503,0.868,305,10.5,100,0,0,859.0049,0,-2.308,3.144,181,10.78,10.33,0.3865437,0,53.9,60.92,34.25,35.89
"2018-05-14 04:30:00",340504,0.42,336.6,10.29,100,0,0,859.066,0,-2.267,3.144,189,10.75,10.34,0.7011036,0,53.9,60.92,34.25,35.89
"2018-05-14 04:40:00",340505,0.245,331.6,10.26,100,0,0,859.066,0,-1.898,3.141,183,10.75,10.33,0.6859834,0,53.95,60.92,34.26,35.89
"2018-05-14 04:50:00",340506,0.352,341.5,10.21,100,0.9080999,0,859.1102,0,-2.369,3.145,180,10.77,10.34,0.7580557,0.433,53.9,60.92,34.25,35.89
"2018-05-14 05:00:00",340507,0.704,350.5,10.38,100,3.219809,0,859.3145,0,-2.709,3.148,181,10.79,10.37,1.114437,0.355,53.95,60.92,34.26,35.89
"2018-05-14 05:10:00",340508,0.979,318.8,10.37,100,7.39518,0,859.4725,0,-2.837,3.149,192,10.81,10.37,1.690665,0.231,53.95,60.92,34.26,35.89
"2018-05-14 05:20:00",340509,0.746,331.4,10.34,99.9,11.66886,0,859.5862,0,-2.765,3.149,188,10.84,10.37,2.240343,0.193,53.9,60.92,34.25,35.89
"2018-05-14 05:30:00",340510,0.844,331.2,10.26,99.7,17.6922,0,859.8011,0,0.236,3.12,244,10.85,10.37,2.85448,0.164,53.9,60.92,34.25,35.89
"2018-05-14 05:40:00",340511,0.194,8.77,10.17,100,28.66935,0,859.8369,0,-2.998,3.152,170,10.85,10.38,4.147164,0.144,53.9,60.86,34.25,35.88
"2018-05-14 05:50:00",340512,0.734,310.7,10.24,100,30.47403,0,860.1191,0,-2.971,3.151,171,10.84,10.38,4.192663,0.139,53.9,60.86,34.25,35.88
"2018-05-14 06:00:00",340513,0.47,337.2,10.35,100,22.11933,0,860.3171,0,-3.121,3.152,172,10.8,10.38,2.778683,0.127,53.9,60.8,34.25,35.86
"2018-05-14 06:10:00",340514,1.026,318.7,10.3,100,19.11164,0,860.3298,0,-2.995,3.151,188,10.77,10.37,2.615677,0.137,53.84,60.8,34.23,35.86
"2018-05-14 06:20:00",340515,1.15,288.9,10.29,100,31.73609,0,860.4034,0,-2.869,3.15,180,10.77,10.37,4.340508,0.141,53.84,60.8,34.23,35.86
"2018-05-14 06:30:00",340516,1.246,301.3,10.24,100,33.23404,0,860.5235,0,-2.64,3.148,188,10.76,10.38,4.461814,0.135,53.84,60.8,34.23,35.86
"2018-05-14 06:40:00",340517,1.205,295.1,10.09,100,22.40241,0,860.6562,0,-2.823,3.151,176,10.76,10.38,2.975806,0.133,53.84,60.8,34.23,35.86
"2018-05-14 06:50:00",340518,1.422,300.5,9.98,100,50.30516,0,860.8205,0,-1.931,3.142,186,10.82,10.36,6.520239,0.132,53.84,60.74,34.23,35.85
"2018-05-14 07:00:00",340519,1.342,311.4,10.02,99.4,100.6772,0,860.8184,0,-2.184,3.144,193,10.83,10.37,14.87145,0.143,53.84,60.74,34.23,35.85
"2018-05-14 07:10:00",340520,1.23,289.8,10.16,94.9,109.987,0,860.8352,0,-2.459,3.146,188,10.79,10.37,15.91768,0.141,53.67,60.8,34.19,35.86
"2018-05-14 07:20:00",340521,0.756,277.6,10.37,95.2,147.1667,0,860.8352,0,-2.203,3.143,188,10.78,10.37,20.63325,0.138,53.33,60.74,34.11,35.85
"2018-05-14 07:30:00",340522,0.943,294,10.3,95.9,95.85571,0,860.8437,0,-2.458,3.146,189,10.75,10.37,13.1237,0.135,52.77,60.74,33.98,35.85
"2018-05-14 07:40:00",340523,1.421,290.7,10.25,95.2,104.3575,0,860.8963,0,-2.407,3.146,179,10.76,10.35,14.05973,0.134,52.66,60.74,33.95,35.85
"2018-05-14 07:50:00",340524,1.233,285.5,10.28,94.8,170.8714,0,861.0059,0,-2.395,3.144,186,10.75,10.34,23.05847,0.139,52.72,60.68,33.96,35.83
"2018-05-14 08:00:00",340525,0.506,170.4,10.63,94.5,241.4883,0,860.9426,0,-2.747,3.146,188,10.76,10.36,31.34109,0.13,52.66,60.74,33.95,35.85
"2018-05-14 08:10:00",340526,0.43,232.7,10.97,90.2,320.7999,0,860.8837,0,-2.371,3.141,184,10.73,10.32,42.40049,0.131,52.66,60.68,33.95,35.83
"2018-05-14 08:20:00",340527,1.181,294,10.69,88.5,172.2737,0,861.1701,0,-3.076,3.15,176,10.71,10.28,24.65075,0.143,52.6,60.68,33.94,35.83
"2018-05-14 08:30:00",340528,0.826,283,10.61,90.6,167.2664,0,861.2565,0,-2.864,3.148,188,10.67,10.27,24.21651,0.145,52.6,60.68,33.94,35.83
"2018-05-14 08:40:00",340529,0.887,311.2,10.63,89.5,131.4828,0,861.248,0,-2.758,3.147,193,10.68,10.26,19.64544,0.149,52.66,60.68,33.95,35.83
"2018-05-14 08:50:00",340530,0.629,257.9,10.62,93.8,152.3937,0,861.3154,0,-2.96,3.149,176,10.68,10.27,24.44647,0.156,52.6,60.62,33.94,35.82
"2018-05-14 09:00:00",340531,0.837,286.3,10.9,87.7,372.3324,0,861.446,0,-2.234,3.139,193,10.66,10.25,53.78888,0.145,52.6,60.62,33.94,35.82
"2018-05-14 09:10:00",340532,0.781,323,11.23,80.9,452.9263,0,861.4482,0,-3.057,3.143,189,10.67,10.25,67.24927,0.147,52.6,60.62,33.94,35.82
"2018-05-14 09:20:00",340533,0.392,27.66,11.86,80.8,473.5996,0,861.3408,0,-1.978,3.131,198,10.67,10.29,71.62618,0.149,52.6,60.56,33.94,35.81
"2018-05-14 09:30:00",340534,0.477,210.3,12.56,73.75,903.9778,0,861.3113,0,-2.396,3.132,194,10.68,10.25,131.9557,0.146,52.6,60.56,33.94,35.81
"2018-05-14 09:40:00",340535,0.595,175.2,13.02,71.85,879.889,0,861.1027,0,-1.321,3.117,209,10.68,10.28,129.9586,0.146,52.6,60.56,33.94,35.81
"2018-05-14 09:50:00",340536,0.327,272.1,13.84,69.01,837.9293,0,861.1301,0,-0.791,3.109,213,10.68,10.29,123.0768,0.141,52.55,60.56,33.92,35.81
"2018-05-14 10:00:00",340537,0.859,217.3,13.9,65.47,1002.169,0,861.1689,0,-3.274,3.134,193,10.7,10.26,151.3976,0.151,52.55,60.56,33.92,35.81
"2018-05-14 10:10:00",340538,0.605,243.7,14.17,64.03,1022.209,0,861.0374,0,-2.543,3.126,189,10.68,10.25,155.0271,0.152,52.55,60.56,33.92,35.81
"2018-05-14 10:20:00",340539,0.893,306.8,14.01,58.53,1018.265,0,861.0238,0,-2.99,3.13,191,10.72,10.24,157.2982,0.154,52.55,60.5,33.92,35.79
"2018-05-14 10:30:00",340540,0.45,283.3,14.21,57.39,1014.194,0,861.0084,0,-1.024,3.108,219,10.72,10.24,157.5694,0.153,52.49,60.5,33.91,35.79
"2018-05-14 10:40:00",340541,0.853,1.042,14.61,54.75,1077.749,0,861.2372,0,-1.337,3.112,203,10.76,10.2,170.9665,0.159,52.55,60.44,33.92,35.78
"2018-05-14 10:50:00",340542,0.686,10.73,14.99,56.45,1079.377,0,861.2615,0,-3.623,3.13,220,10.83,10.19,173.9834,0.161,52.44,60.44,33.89,35.78
"2018-05-14 11:00:00",340543,0.892,358.3,14.99,55.94,990.0565,0,861.269,0,-1.555,3.115,218,10.89,10.14,162.9153,0.16,52.44,60.44,33.89,35.78
"2018-05-14 11:10:00",340544,0.741,277.4,14.68,55.67,1091.553,0,861.2521,0,-3.962,3.137,198,10.94,10.14,182.2634,0.167,52.44,60.44,33.89,35.78
"2018-05-14 11:20:00",340545,1.087,263.9,14.44,52.67,1098.87,0,861.2359,0,-2.564,3.124,200,11.05,10.14,185.9853,0.169,52.44,60.44,33.89,35.78
"2018-05-14 11:30:00",340546,0.62,283,14.8,53.75,1102.76,0,861.099,0,-4.885,3.144,195,11.13,10.15,189.7434,0.172,52.44,60.44,33.89,35.78
"2018-05-14 11:40:00",340547,0.913,355.2,15.16,52.35,1101.484,0,861.0529,0,-1.689,3.111,242,11.24,10.15,190.5015,0.173,52.38,60.38,33.88,35.77
"2018-05-14 11:50:00",340548,0.459,260.6,14.93,55.02,991.0485,0,861.0452,0,1.134,3.087,265,11.31,10.15,170.3231,0.166,52.38,60.38,33.88,35.77
"2018-05-14 12:00:00",340549,0.571,289.1,15,55.93,966.6351,0,861.0462,0,-2.785,3.124,238,11.39,10.16,169.9539,0.169,52.38,60.38,33.88,35.77
"2018-05-14 12:10:00",340550,0.736,291.2,14.78,56.77,1055.965,0,861.041,0,-0.606,3.103,237,11.51,10.16,185.8432,0.174,52.38,60.38,33.88,35.77
"2018-05-14 12:20:00",340551,0.35,312.9,15.75,57.38,1058.04,0,861.0417,0,-1.753,3.106,218,11.61,10.13,188.1971,0.178,52.32,60.38,33.87,35.77
"2018-05-14 12:30:00",340552,0.417,266.4,16.21,56.05,1065.476,0,861.0416,0,-1.46,3.105,240,11.71,10.16,189.7812,0.178,52.27,60.38,33.85,35.77
"2018-05-14 12:40:00",340553,0.484,260.6,16,55.65,1030.126,0,861.0341,0,-2.039,3.113,217,11.84,10.23,185.5562,0.18,52.21,60.33,33.84,35.75
"2018-05-14 12:50:00",340554,0.622,266.3,15.71,56.11,1011.939,0,860.9615,0,-3.819,3.128,200,11.93,10.22,183.7655,0.182,52.21,60.38,33.84,35.77
"2018-05-14 13:00:00",340555,0.743,281.2,15.88,53.23,999.7827,0,860.9498,0,-2.039,3.113,198,12.02,10.23,181.851,0.182,52.27,60.33,33.85,35.75
"2018-05-14 13:10:00",340556,0.699,264.2,15.56,53.38,977.2883,0,860.9064,0,-3.739,3.13,196,12.15,10.24,180.4794,0.185,52.27,60.33,33.85,35.75
"2018-05-14 13:20:00",340557,0.663,273.2,15.71,52.03,962.0269,0,860.9138,0,-2.756,3.119,196,12.25,10.23,178.1199,0.185,52.27,60.38,33.85,35.77
"2018-05-14 13:30:00",340558,0.801,268.9,15.56,51.23,940.9824,0,861.0112,0,-2.84,3.121,203,12.37,10.21,173.3545,0.184,52.21,60.33,33.84,35.75
"2018-05-14 13:40:00",340559,0.659,268.1,15.41,52.48,917.0779,0,861.045,0,-1.581,3.109,254,12.48,10.2,168.059,0.183,52.16,60.33,33.83,35.75
"2018-05-14 13:50:00",340560,0.558,266.6,16.11,50.85,901.753,0,861.0584,0,-4.074,3.129,207,12.59,10.17,162.1397,0.18,52.21,60.33,33.84,35.75
"2018-05-14 14:00:00",340561,0.519,244.2,16.27,50.93,878.0642,0,861.1432,0,-3.587,3.125,204,12.68,10.16,153.4388,0.175,52.16,60.27,33.83,35.74
"2018-05-14 14:10:00",340562,0.58,257.1,15.71,52.47,852.8615,0,861.2609,0,-2.942,3.122,195,12.81,10.19,145.1243,0.17,52.16,60.33,33.83,35.75
"2018-05-14 14:20:00",340563,0.792,266.1,15.47,52.29,831.3032,0,861.2693,0,-3.712,3.129,192,12.89,10.25,135.6714,0.163,52.1,60.33,33.81,35.75
"2018-05-14 14:30:00",340564,0.714,257.8,15.39,52.46,811.2697,0,861.2518,0,-2.286,3.117,189,12.98,10.31,123.402,0.152,52.05,60.27,33.8,35.74
"2018-05-14 14:40:00",340565,0.799,269.1,15.37,52.19,782.5912,0,861.2885,0,-2.514,3.119,206,13.1,10.29,105.2309,0.134,52.1,60.27,33.81,35.74
"2018-05-14 14:50:00",340566,0.763,275.2,15.19,52.09,756.9835,0,861.3038,0,1.603,3.078,316,13.2,10.25,84.18746,0.111,52.05,60.27,33.8,35.74
"2018-05-14 15:00:00",340567,0.749,270.6,15.54,52.26,731.988,0,861.2532,0,-2.05,3.114,202,13.29,10.24,60.70812,0.083,52.05,60.27,33.8,35.74
"2018-05-14 15:10:00",340568,0.48,228.6,15.17,55.06,461.5677,0,861.3137,0,-1.005,3.105,231,13.35,10.29,34.31045,0.08,51.99,60.27,33.79,35.74
"2018-05-14 15:20:00",340569,0.498,234.3,15.18,54.08,157.6515,0,861.37,0,-1.248,3.109,233,13.44,10.41,26.0834,0.194,51.99,60.27,33.79,35.74
"2018-05-14 15:30:00",340570,0.701,255.4,14.9,55.6,110.6611,0,861.5696,0,0.656,3.09,264,13.55,10.39,23.88169,0.216,51.94,60.27,33.77,35.74
"2018-05-14 15:40:00",340571,0.756,320.4,15.13,55.64,96.34303,0,861.7297,0,-1.707,3.113,205,13.61,10.35,20.40668,0.212,51.99,60.21,33.79,35.73
"2018-05-14 15:50:00",340572,0.537,255.9,14.66,57.91,88.75759,0,861.8502,0,1.359,3.085,279,13.65,10.4,17.55315,0.198,51.94,60.21,33.77,35.73
"2018-05-14 16:00:00",340573,0.765,282.6,14.63,57.76,86.02211,0,861.9598,0,-0.138,3.101,238,13.74,10.42,16.32534,0.19,51.94,60.21,33.77,35.73
"2018-05-14 16:10:00",340574,0.662,239.7,14.05,60.14,78.20085,0,862.0209,0,-2.045,3.121,203,13.75,10.46,14.47226,0.185,51.88,60.21,33.76,35.73
"2018-05-14 16:20:00",340575,0.687,256.1,14.18,59.82,73.13078,0,861.9683,0,-1.177,3.113,220,13.88,10.5,13.20655,0.18,51.94,60.21,33.77,35.73
"2018-05-14 16:30:00",340576,0.557,255.7,13.81,61.82,67.44366,0,862.0251,0,-2.418,3.127,199,13.86,10.53,11.02377,0.163,51.88,60.15,33.76,35.71
"2018-05-14 16:40:00",340577,0.242,184.3,13.46,64.1,62.61728,0,862.221,0,-3.146,3.136,270,13.89,10.59,9.489011,0.152,51.82,60.15,33.75,35.71
"2018-05-14 16:50:00",340578,0.552,240.9,13.46,63.41,59.60275,0,862.3516,0,-1.556,3.12,294,13.97,10.61,9.049423,0.152,51.82,60.15,33.75,35.71
"2018-05-14 17:00:00",340579,0.849,275.6,13.17,62.68,56.98125,0,862.3516,0,-3.307,3.139,198,13.97,10.64,8.367307,0.147,51.82,60.15,33.75,35.71
"2018-05-14 17:10:00",340580,0.467,228,12.85,66.4,51.80114,0,862.3516,0,-0.964,3.118,239,13.97,10.62,7.366868,0.142,51.82,60.09,33.75,35.7
"2018-05-14 17:20:00",340581,0.432,259.2,12.81,65.59,47.89443,0,862.5285,0,-3.623,3.144,195,13.97,10.67,6.855279,0.143,51.77,60.09,33.73,35.7
"2018-05-14 17:30:00",340582,0.367,147.5,12.67,66.35,43.57147,0,862.6044,0,-2.193,3.13,218,13.98,10.72,6.245214,0.143,51.77,60.09,33.73,35.7
"2018-05-14 17:40:00",340583,0.288,202,12.59,66.07,38.75722,0,862.6317,0,0.507,3.105,352,13.98,10.69,5.475984,0.141,51.77,60.09,33.73,35.7
"2018-05-14 17:50:00",340584,0.352,209.2,12.5,65.45,34.28128,0,862.638,0,0.093,3.109,294,14,10.68,5.02513,0.147,51.77,60.09,33.73,35.7
"2018-05-14 18:00:00",340585,0.131,257.7,12.47,67.04,29.21189,0,862.7286,0,-0.628,3.116,250,14.05,10.77,4.449229,0.152,51.71,60.09,33.72,35.7
"2018-05-14 18:10:00",340586,0.073,292.7,12.29,69.03,23.81643,0,862.834,0,-1.008,3.122,216,14.01,10.84,3.683872,0.154,51.71,60.09,33.72,35.7
"2018-05-14 18:20:00",340587,0.012,213.5,11.81,70.68,16.9387,0,862.8613,0,-1.16,3.126,208,14.03,10.86,2.323413,0.137,51.77,60.09,33.73,35.7
"2018-05-14 18:30:00",340588,0.005,203.7,11.41,72.4,9.030158,0,863.0909,0,-1.612,3.132,204,14.03,10.86,1.125779,0.123,51.71,60.09,33.72,35.7
"2018-05-14 18:40:00",340589,0,0,11.05,74.26,2.641954,0,863.1098,0,-1.806,3.136,201,14.02,10.94,0.1857431,0.043,51.71,60.03,33.72,35.69
"2018-05-14 18:50:00",340590,0,0,10.72,74.16,0,0,863.1098,0,-2.884,3.148,185,14,10.99,0,0,51.71,60.03,33.72,35.69
"2018-05-14 19:00:00",340591,0.053,204,10.38,76.79,0,0,863.1941,0,-2.363,3.146,206,13.93,10.98,0,0,51.71,60.03,33.72,35.69
"2018-05-14 19:10:00",340592,0.102,203.2,9.95,80.5,0,0,863.3626,0,-2.089,3.145,233,13.94,10.99,0,0,51.71,59.97,33.72,35.67
"2018-05-14 19:20:00",340593,0.039,198.9,9.59,83.4,0,0,863.4448,0,-3.776,3.164,192,13.91,11.01,0,0,51.71,60.03,33.72,35.69
"2018-05-14 19:30:00",340594,0.34,193,9.13,86.4,0,0,863.6152,0,-3.986,3.168,191,13.89,11.12,0,0,51.66,60.03,33.7,35.69
"2018-05-14 19:40:00",340595,0.125,190.8,8.85,86.9,0,0,863.6382,0,-3.326,3.162,177,13.8,11.11,0.003790837,0,51.71,60.03,33.72,35.69
"2018-05-14 19:50:00",340596,0.335,49.05,9.92,77.06,0,0,863.6804,0,-3.375,3.154,190,13.78,11.1,1.413982,0,51.66,59.97,33.7,35.67
"2018-05-14 20:00:00",340597,0.236,116.7,9.61,79.62,0,0,863.9205,0,-3.255,3.163,193,13.73,11.14,0.4852271,0,51.66,59.97,33.7,35.67
"2018-05-14 20:10:00",340598,0.258,176.6,8.54,85.9,0,0,863.9627,0,-3.434,3.165,195,13.7,11.18,0,0,51.66,59.97,33.7,35.67
"2018-05-14 20:20:00",340599,0.303,181.1,8.32,87.1,0,0,864.1915,0,-1.966,3.152,222,13.63,11.24,0,0,51.66,59.97,33.7,35.67
"2018-05-14 20:30:00",340600,0.179,197.8,8.46,86.5,0,0,864.2361,0,-1.458,3.147,277,13.62,11.24,0.2464044,0,51.66,59.97,33.7,35.67
"2018-05-14 20:40:00",340601,0.401,189.7,7.992,92,0,0,864.4368,0,-1.188,3.147,262,13.58,11.22,0,0,51.66,59.91,33.7,35.66
"2018-05-14 20:50:00",340602,0.256,192.1,7.968,91.7,0,0,864.4622,0,-0.782,3.143,293,13.54,11.17,0.1137251,0,51.66,59.97,33.7,35.67
"2018-05-14 21:00:00",340603,0.221,191.4,8.04,89.7,0,0,864.6645,0,-3.162,3.165,202,13.44,11.16,0.4245737,0,51.6,59.91,33.69,35.66
"2018-05-14 21:10:00",340604,0.404,191.5,7.866,89.7,0,0,864.6729,0,-2.816,3.165,204,13.45,11.22,0.1819602,0,51.66,59.91,33.7,35.66
"2018-05-14 21:20:00",340605,0.539,186.7,7.587,92.5,0,0,864.6729,0,-3.676,3.173,186,13.36,11.26,0.1440518,0,51.6,59.91,33.69,35.66
"2018-05-14 21:30:00",340606,0.245,191.1,7.88,89.3,0,0,864.6729,0,-3.951,3.174,190,13.33,11.32,0.5155538,0,51.6,59.91,33.69,35.66
"2018-05-14 21:40:00",340607,0.465,188,7.743,90.5,0,0,864.7172,0,-3.597,3.171,190,13.27,11.33,0.3980378,0,51.6,59.85,33.69,35.64
"2018-05-14 21:50:00",340608,0.527,185.7,7.712,89.4,0,0,864.654,0,-3.702,3.173,196,13.22,11.33,0.3373851,0,51.6,59.85,33.69,35.64
"2018-05-14 22:00:00",340609,0.173,188.5,7.991,84.8,0,0,864.7214,0,-4.002,3.174,177,13.21,11.32,0.4966061,0,51.6,59.85,33.69,35.64
"2018-05-14 22:10:00",340610,0.425,181.2,7.732,86.7,0,0,864.7235,0,-3.194,3.168,198,13.12,11.29,0.1023534,0,51.6,59.85,33.69,35.64
"2018-05-14 22:20:00",340611,0.611,190.2,7.471,90,0,0,864.7172,0,-2.413,3.162,201,13.14,11.3,0,0,51.66,59.85,33.7,35.64
"2018-05-14 22:30:00",340612,0.648,187.6,7.415,91.7,0,0,864.6793,0,-2.182,3.159,203,13,11.4,0.09856184,0,51.66,59.79,33.7,35.63
"2018-05-14 22:40:00",340613,0.468,186.7,7.621,88.7,0,0,864.7172,0,-2.408,3.16,204,13.03,11.42,0.3904564,0,51.6,59.85,33.69,35.64
"2018-05-14 22:50:00",340614,0.41,185.1,7.646,88.4,0,0,864.7172,0,-2.714,3.163,194,12.91,11.42,0.26536,0,51.66,59.79,33.7,35.63
"2018-05-14 23:00:00",340615,0.445,182.8,7.567,90.1,0,0,864.7067,0,-2.437,3.161,202,12.95,11.42,0.1667992,0,51.66,59.79,33.7,35.63
"2018-05-14 23:10:00",340616,0.606,183.4,7.614,89.6,0,0,864.7172,0,-3.124,3.167,196,12.87,11.43,0.4473347,0,51.6,59.79,33.69,35.63
"2018-05-14 23:20:00",340617,0.62,196.8,7.641,88.1,0,0,864.6055,0,-3.349,3.168,200,12.87,11.43,0.2388329,0,51.6,59.79,33.69,35.63
"2018-05-14 23:30:00",340618,0.384,190.2,7.883,85.6,0,0,864.5255,0,-4.346,3.179,194,12.75,11.43,0.2881182,0,51.66,59.79,33.7,35.63
"2018-05-14 23:40:00",340619,0.462,195.8,7.907,84.6,0,0,864.4833,0,-3.632,3.17,228,12.81,11.44,0.4435616,0,51.6,59.79,33.69,35.63
"2018-05-14 23:50:00",340620,0.274,196.9,7.884,84.2,0,0,864.5908,0,-2.596,3.162,224,12.7,11.43,0.1288978,0,51.6,59.73,33.69,35.62
